Location: Unspecified
(0.0000°N, 0.0000°E)
Time: 15:35:10
(UTC+00:00)

ISS - Pass Details

Date: 23 January 2018
Orbit: 402 x 407 km, 51.6° (Epoch: 23 January)

Event Time Altitude Azimuth Distance (km) Brightness Sun altitude
Exits shadow 05:33:13 12° 304° (WNW) 1,344 -1.8 -9.1°
Maximum altitude 05:36:00 39° 235° (SW) 619 -3.2 -8.4°
Drops below altitude 10° 05:39:06 10° 164° (SSE) 1,461 -0.5 -7.7°
Sets 05:41:16 0° 156° (SSE) 2,323 0.7 -7.2°
